Weather History for KHYA - February, 2013

Change the Weather History Date:

Monday, February 25, 2013

  Actual Average Record
Temperature  
Mean Temperature 34 °F -  
Max Temperature 42 °F 40 °F 55 °F (1984)
Min Temperature 26 °F 27 °F 3 °F (1934)
Degree Days  
Heating Degree Days 30    
Moisture  
Dew Point 29 °F    
Average Humidity 80    
Maximum Humidity 100    
Minimum Humidity 53    
Precipitation  
Precipitation 0.03 in - - ()
Sea Level Pressure  
Sea Level Pressure 30.03 in    
Wind  
Wind Speed 12 mph (North)    
Max Wind Speed 16 mph    
Max Gust Speed 24 mph    
Visibility 9 miles    
Events Snow    
Averages and records for this station are not official NWS values.
T = Trace of Precipitation, MM = Missing Value Source: NWS Daily Summary

Daily Weather History Graph

Daily Weather History Graph

Search for Another Location

Airport or City:

Trip Planner

Search our weather history database for the weather conditions in past years. The results will help you decide how hot, cold, wet, or windy it might be!

Date:

Astronomy

Feb. 25, 2013 Rise Set
Actual Time 6:21 AM EST 5:27 PM EST
Civil Twilight 5:53 AM EST 5:55 PM EST
Nautical Twilight 5:21 AM EST 6:27 PM EST
Astronomical Twilight 4:49 AM EST 6:59 PM EST
Moon 5:37 PM EST (2/25) 5:49 AM EST (2/25)
Length of Visible Light 12h 01m
Length of Day
11h 05m
Full, 100% of the Moon is Illuminated
Feb 25
Full
Feb 25
Full
Mar 4
Last Quarter
Mar 11
New
Mar 19
First Quarter

Hourly Weather History & Observations

Time (EST) Temp. Windchill Dew Point Humidity Pressure Visibility Wind Dir Wind Speed Gust Speed Precip Events Conditions
12:20 AM 33.8 °F 24.8 °F 33.8 °F 100% 29.82 in 4.0 mi North 12.7 mph 24.2 mph 0.01 in Snow Light Snow
12:56 AM 34.0 °F 23.8 °F 34.0 °F 100% 29.84 in 3.0 mi North 16.1 mph 21.9 mph 0.02 in Snow Light Snow
1:56 AM 34.0 °F 24.6 °F 34.0 °F 100% 29.85 in 4.0 mi North 13.8 mph 19.6 mph 0.01 in Snow Light Snow
2:56 AM 35.1 °F 27.9 °F 34.0 °F 96% 29.86 in 10.0 mi North 9.2 mph - 0.00 in   Overcast
3:15 AM 35.6 °F 27.5 °F 33.8 °F 93% 29.86 in 9.0 mi NNW 11.5 mph - 0.00 in Snow Light Snow
3:25 AM 35.6 °F 27.5 °F 33.8 °F 93% 29.86 in 9.0 mi North 11.5 mph 21.9 mph 0.00 in   Overcast
3:56 AM 35.1 °F 25.2 °F 33.1 °F 92% 29.89 in 6.0 mi NNW 16.1 mph 21.9 mph 0.00 in   Overcast
4:56 AM 35.1 °F 25.5 °F 32.0 °F 89% 29.92 in 10.0 mi NNW 15.0 mph 23.0 mph 0.00 in   Overcast
5:22 AM 35.6 °F 26.6 °F 32.0 °F 87% 29.93 in 10.0 mi North 13.8 mph 24.2 mph N/A   Overcast
5:48 AM 33.8 °F 25.3 °F 30.2 °F 87% 29.93 in 10.0 mi North 11.5 mph 20.7 mph N/A   Mostly Cloudy
5:56 AM 34.0 °F 24.2 °F 30.9 °F 89% 29.95 in 10.0 mi North 15.0 mph 23.0 mph N/A   Mostly Cloudy
6:06 AM 35.6 °F 26.2 °F 30.2 °F 81% 29.95 in 10.0 mi North 15.0 mph 21.9 mph N/A   Mostly Cloudy
6:56 AM 35.1 °F 27.4 °F 30.0 °F 82% 29.98 in 10.0 mi North 10.4 mph 20.7 mph N/A   Overcast
7:56 AM 35.1 °F 26.9 °F 30.9 °F 85% 30.00 in 10.0 mi North 11.5 mph - N/A   Overcast
8:56 AM 37.9 °F 30.0 °F 30.0 °F 73% 30.01 in 10.0 mi North 12.7 mph 19.6 mph N/A   Overcast
9:03 AM 37.4 °F 28.5 °F 28.4 °F 70% 30.00 in 10.0 mi NNE 15.0 mph 20.7 mph N/A   Partly Cloudy
9:56 AM 39.9 °F 32.9 °F 27.0 °F 60% 30.04 in 10.0 mi North 11.5 mph 20.7 mph N/A   Clear
10:56 AM 42.1 °F 36.1 °F 27.0 °F 55% 30.06 in 10.0 mi NNE 10.4 mph 18.4 mph N/A   Clear
11:56 AM 41.0 °F 33.5 °F 26.1 °F 55% 30.06 in 10.0 mi North 13.8 mph 20.7 mph N/A   Clear
12:56 PM 41.0 °F 33.5 °F 26.1 °F 55% 30.08 in 10.0 mi North 13.8 mph 18.4 mph N/A   Clear
1:56 PM 41.0 °F 33.9 °F 25.0 °F 53% 30.09 in 10.0 mi North 12.7 mph - N/A   Scattered Clouds
2:56 PM 39.9 °F 32.5 °F 25.0 °F 55% 30.11 in 10.0 mi North 12.7 mph 20.7 mph N/A   Clear
3:56 PM 39.0 °F 31.8 °F 25.0 °F 57% 30.13 in 10.0 mi North 11.5 mph - N/A   Clear
4:56 PM 37.0 °F 29.3 °F 27.0 °F 67% 30.16 in 10.0 mi North 11.5 mph - N/A   Clear
5:56 PM 36.0 °F 32.1 °F 28.0 °F 73% 30.17 in 10.0 mi North 4.6 mph - N/A   Clear
6:56 PM 34.0 °F 29.8 °F 28.0 °F 79% 30.18 in 10.0 mi NE 4.6 mph - N/A   Partly Cloudy
7:56 PM 30.0 °F - 27.0 °F 88% 30.21 in 10.0 mi Calm Calm - N/A   Clear
8:56 PM 28.9 °F - 26.1 °F 89% 30.23 in 10.0 mi Calm Calm - N/A   Clear
9:56 PM 27.0 °F - 26.1 °F 96% 30.22 in 10.0 mi Calm Calm - N/A   Clear
10:56 PM 27.0 °F - 25.0 °F 92% 30.23 in 10.0 mi Calm Calm - N/A   Clear
11:56 PM 26.1 °F - 24.1 °F 92% 30.24 in 10.0 mi Calm Calm - N/A   Clear